Flugplatz Burg Feuerstein
 
.... wo jeder bestens aufgehoben ist! 

 

DSC04520

 


Täglich sind wir von 08.30 bis 12.30 Uhr und von 13.00 bis 16.45 Uhr unter 09194 - 79 75 75 

oder 

rund um die Uhr per Diese E-Mail-Adresse ist vor Spambots geschützt! Zur Anzeige muss JavaScript eingeschaltet sein! zu erreichen!

 

Flugbetrieb an jedem fliegbaren Tag von 9 Uhr bis 18 Uhr - nach Absprache auch flexibel darüber hinaus ! 

 


 
 

Wir bieten professionelle und trotzdem sehr günstige Ausbildung in 4 Sparten an:

Motorflug Motorsegler Segelflug Ultraleicht

Bei unseren Gebühren gibt keine „versteckten Kosten“ wie

  • Baustunden oder finanzielle Ausgleiche dafür
  • Verpflichtung zu Diensten oder finanzielle Ausgleiche dafür
  • Umschulungs- oder Typengebühren

Ebenso gibt es bei uns keinerlei zeitlicher Verpflichtungen zur Teilnahme am Flugbetrieb!

Kümmern Sie sich nur um Ihre fliegerischen Ambitionen – wir unterstützen Sie dabei professionell, individuell, zielorientiert und maximal flexibel!

Feuerstein News Ticker

Webcam Blick N

webcam 2

Webcam Blick NO

webcam 1

METAR EDDN

[Quelle: ADDS]
METAR
EDDN 260420Z 12003KT 8000 FEW006 BKN042 M01/M01 Q1027 =
AMD EDDN 260312Z 2603/2624 34005KT 9999 SCT040 TEMPO 2603/2606 0400 FZFG BECMG 2608/2610 29010KT BECMG 2617/2619 28005KT
TAF
AMD EDDN 260312Z 2603/2624 34005KT 9999 SCT040 TEMPO 2603/2606 0400 FZFG BECMG 2608/2610 29010KT BECMG 2617/2619 28005KT =
SR / SS: 05:04 / 17:37 UTC (EDQE 2019-03-26)

Wetter EDQE


Das Wetter heute
Das Wetter morgen